Southbury, CT

8:19 PM EST on December 03, 2016 (GMT -0500)
Waterbury-Oxford

Weather History for KOXC - July, 2012

Change the Weather History Date:

Tuesday, July 24, 2012

  Actual Average Record
Temperature  
Mean Temperature 76 °F -  
Max Temperature 84 °F 76 °F 93 °F (1999)
Min Temperature 66 °F 58 °F 55 °F (1997)
Cooling Degree Days 11    
Growing Degree Days 26 (Base 50)    
Moisture  
Dew Point 66 °F    
Average Humidity 82    
Maximum Humidity 100    
Minimum Humidity 55    
Precipitation  
Precipitation 0.00 in - - ()
Sea Level Pressure  
Sea Level Pressure 29.73 in    
Wind  
Wind Speed 5 mph (WSW)    
Max Wind Speed 20 mph    
Max Gust Speed 30 mph    
Visibility 7 miles    
Events Rain , Thunderstorm    
Averages and records for this station are not official NWS values.
T = Trace of Precipitation, MM = Missing Value Source: NWS Daily Summary

Daily Weather History Graph

Daily Weather History Graph

Search for Another Location

Airport or City:

Trip Planner

Search our weather history database for the weather conditions in past years. The results will help you decide how hot, cold, wet, or windy it might be!

Date:

Astronomy

Jul. 24, 2012 Rise Set
Actual Time 5:40 AM EDT 8:17 PM EDT
Civil Twilight 5:08 AM EDT 8:49 PM EDT
Nautical Twilight 4:28 AM EDT 9:29 PM EDT
Astronomical Twilight 3:42 AM EDT 10:14 PM EDT
Moon 11:39 AM EDT (7/24) 10:58 PM EDT (7/24)
Length of Visible Light 15h 41m
Length of Day
14h 37m
Waxing Crescent, 31% of the Moon is Illuminated
Jul 24
Waxing Crescent
Jul 26
First Quarter
Aug 1
Full
Aug 9
Last Quarter
Aug 17
New

Hourly Weather History & Observations

Time (EDT) Temp. Heat Index Dew Point Humidity Pressure Visibility Wind Dir Wind Speed Gust Speed Precip Events Conditions
12:15 AM 71.6 °F - 69.8 °F 94% 29.83 in 1.2 mi SSW 3.5 mph - N/A   Scattered Clouds
12:35 AM 69.8 °F - 69.8 °F 100% 29.83 in 1.0 mi SSW 4.6 mph - N/A   Mostly Cloudy
1:15 AM 69.8 °F - 68.0 °F 94% 29.82 in 5.0 mi South 3.5 mph - N/A   Clear
1:35 AM 69.8 °F - 69.8 °F 100% 29.82 in 7.0 mi SSW 3.5 mph - N/A   Clear
1:55 AM 69.8 °F - 66.2 °F 88% 29.81 in 5.0 mi South 3.5 mph - N/A   Clear
2:15 AM 69.8 °F - 66.2 °F 88% 29.80 in 8.0 mi SSW 4.6 mph - N/A   Clear
2:35 AM 68.0 °F - 66.2 °F 94% 29.79 in 8.0 mi SSW 4.6 mph - N/A   Clear
2:55 AM 68.0 °F - 66.2 °F 94% 29.78 in 8.0 mi SW 4.6 mph - N/A   Partly Cloudy
3:15 AM 68.0 °F - 66.2 °F 94% 29.79 in 9.0 mi SW 4.6 mph - N/A   Partly Cloudy
3:35 AM 68.0 °F - 66.2 °F 94% 29.78 in 8.0 mi SW 5.8 mph - N/A   Clear
3:55 AM 68.0 °F - 66.2 °F 94% 29.78 in 8.0 mi SSW 3.5 mph - N/A   Clear
4:15 AM 68.0 °F - 66.2 °F 94% 29.77 in 7.0 mi SSW 4.6 mph - N/A   Partly Cloudy
4:35 AM 68.0 °F - 66.2 °F 94% 29.76 in 7.0 mi Calm Calm - N/A   Partly Cloudy
4:55 AM 68.0 °F - 66.2 °F 94% 29.75 in 7.0 mi SSW 3.5 mph - N/A   Clear
5:15 AM 68.0 °F - 64.4 °F 88% 29.73 in 7.0 mi Calm Calm - N/A   Clear
5:35 AM 68.0 °F - 66.2 °F 94% 29.74 in 4.0 mi SW 4.6 mph - N/A   Clear
5:45 AM 68.0 °F - 66.2 °F 94% 29.74 in 3.0 mi SW 5.8 mph - N/A   Partly Cloudy
6:45 AM 68.0 °F - 66.2 °F 94% 29.73 in 3.0 mi SW 4.6 mph - N/A   Clear
7:45 AM 71.6 °F - 68.0 °F 88% 29.71 in 5.0 mi Calm Calm - N/A   Clear
8:45 AM 75.2 °F - 69.8 °F 83% 29.70 in 8.0 mi WSW 4.6 mph - N/A   Clear
9:45 AM 78.8 °F - 69.8 °F 74% 29.69 in 8.0 mi West 4.6 mph - N/A   Partly Cloudy
10:45 AM 80.6 °F 84.6 °F 71.6 °F 74% 29.68 in 8.0 mi NNW 5.8 mph - N/A   Scattered Clouds
11:45 AM 82.4 °F 86.3 °F 69.8 °F 66% 29.67 in 8.0 mi WNW 5.8 mph - N/A   Mostly Cloudy
12:45 PM 82.4 °F 86.3 °F 69.8 °F 66% 29.67 in 8.0 mi North 11.5 mph - N/A   Mostly Cloudy
1:45 PM 84.2 °F 86.6 °F 66.2 °F 55% 29.66 in 8.0 mi NW 8.1 mph - N/A   Mostly Cloudy
2:45 PM 84.2 °F 86.6 °F 66.2 °F 55% 29.65 in 8.0 mi NW 8.1 mph - N/A   Mostly Cloudy
3:45 PM 84.2 °F 86.6 °F 66.2 °F 55% 29.64 in 8.0 mi NW 9.2 mph - N/A   Mostly Cloudy
4:45 PM 80.6 °F 82.3 °F 64.4 °F 58% 29.64 in 10.0 mi NNE 17.3 mph 29.9 mph N/A   Mostly Cloudy
5:20 PM 73.4 °F - 64.4 °F 73% 29.66 in 1.0 mi North 19.6 mph - N/A Rain , Thunderstorm Thunderstorms and Rain
5:30 PM 69.8 °F - 66.2 °F 88% 29.66 in 6.0 mi South 5.8 mph 20.7 mph N/A Rain Light Rain
6:45 PM 75.2 °F - 69.8 °F 83% 29.66 in 10.0 mi WNW 4.6 mph - N/A   Scattered Clouds
6:55 PM 71.6 °F - 68.0 °F 88% 29.66 in 10.0 mi Calm Calm - N/A   Mostly Cloudy
7:45 PM 73.4 °F - 69.8 °F 88% 29.68 in 10.0 mi Calm Calm - N/A   Clear
10:15 PM 69.8 °F - 60.8 °F 73% 29.75 in 10.0 mi NNW 8.1 mph - N/A   Clear
11:15 PM 69.8 °F - 55.4 °F 60% 29.77 in 10.0 mi North 16.1 mph 26.5 mph N/A   Clear
11:35 PM 68.0 °F - 55.4 °F 64% 29.78 in 10.0 mi NNW 10.4 mph 19.6 mph N/A   Clear
11:55 PM 66.2 °F - 55.4 °F 68% 29.78 in 10.0 mi North 12.7 mph 16.1 mph N/A   Clear